Aalborg, Denmark

2:55 PM CEST on August 17, 2017 (GMT +0200)
Aalborg

Weather History for EKYT - October, 2012

Change the Weather History Date:

Monday, October 8, 2012

  Actual Average Record
Temperature  
Mean Temperature 50 °F -  
Max Temperature 54 °F 51 °F 64 °F (2005)
Min Temperature 46 °F 40 °F 35 °F (1996)
Degree Days  
Heating Degree Days 15    
Moisture  
Dew Point 43 °F    
Average Humidity 75    
Maximum Humidity 93    
Minimum Humidity 57    
Precipitation  
Precipitation 0.00 in - - ()
Sea Level Pressure  
Sea Level Pressure 29.80 in    
Wind  
Wind Speed 14 mph ()    
Max Wind Speed 22 mph    
Max Gust Speed 29 mph    
Visibility 6.7 miles    
Events Rain    
Averages and records for this station are not official NWS values.
T = Trace of Precipitation, MM = Missing Value Source: Averaged Metar Reports

Daily Weather History Graph

Daily Weather History Graph

Search for Another Location

Airport or City:

Trip Planner

Search our weather history database for the weather conditions in past years. The results will help you decide how hot, cold, wet, or windy it might be!

Date:

Astronomy

Oct. 08, 2012 Rise Set
Actual Time 7:39 AM CEST 6:35 PM CEST
Civil Twilight 7:01 AM CEST 7:13 PM CEST
Nautical Twilight 6:16 AM CEST 7:57 PM CEST
Astronomical Twilight 5:31 AM CEST 8:42 PM CEST
Moon 11:49 PM CEST (10/8) 3:28 PM CEST (10/8)
Length of Visible Light 12h 12m
Length of Day
10h 55m
Waning Gibbous, 49% of the Moon is Illuminated
Oct 8
Waning Gibbous
Oct 15
New
Oct 22
First Quarter
Oct 29
Full
Nov 7
Last Quarter

Hourly Weather History & Observations

Time (CEST) Temp. Windchill Dew Point Humidity Pressure Visibility Wind Dir Wind Speed Gust Speed Precip Events Conditions
12:20 AM 50.0 °F - 42.8 °F 76% 29.83 in 6.2 mi WNW 17.3 mph - N/A   Partly Cloudy
12:50 AM 50.0 °F - 41.0 °F 71% 29.83 in 6.2 mi WNW 17.3 mph - N/A   Partly Cloudy
1:20 AM 50.0 °F - 41.0 °F 71% 29.86 in - WNW 16.1 mph - N/A   Clear
1:50 AM 50.0 °F - 39.2 °F 66% 29.86 in - WNW 17.3 mph 28.8 mph N/A   Clear
2:00 AM 50 °F - 39 °F 57% 29.87 in 6 mi WNW 15.0 mph - -   Clear
2:20 AM 50.0 °F - 39.2 °F 66% 29.86 in - WNW 13.8 mph - N/A   Clear
2:50 AM 50.0 °F - 39.2 °F 66% 29.86 in - WNW 11.5 mph - N/A   Clear
3:20 AM 50.0 °F - 39.2 °F 66% 29.86 in - WNW 13.8 mph - N/A   Clear
3:50 AM 50.0 °F - 41.0 °F 71% 29.86 in - WNW 11.5 mph - N/A   Clear
4:20 AM 50.0 °F - 41.0 °F 71% 29.86 in - WNW 12.7 mph - N/A   Clear
4:50 AM 50.0 °F - 41.0 °F 71% 29.86 in - WNW 12.7 mph - N/A   Clear
5:00 AM 50 °F - 42 °F 66% 29.88 in 6 mi WNW 11.5 mph - -   Clear
5:20 AM 50.0 °F - 41.0 °F 71% 29.86 in - WNW 13.8 mph - N/A   Clear
5:50 AM 50.0 °F - 41.0 °F 71% 29.86 in - WNW 13.8 mph 26.5 mph N/A   Clear
6:20 AM 50.0 °F - 42.8 °F 76% 29.86 in - WNW 13.8 mph - N/A   Clear
6:50 AM 50.0 °F - 42.8 °F 76% 29.86 in - WNW 13.8 mph - N/A   Clear
7:20 AM 50.0 °F - 42.8 °F 76% 29.86 in 6.2 mi WNW 17.3 mph - N/A   Scattered Clouds
7:50 AM 50.0 °F - 42.8 °F 76% 29.86 in 6.2 mi WNW 15.0 mph - N/A   Scattered Clouds
8:00 AM 50 °F - 44 °F 73% 29.88 in 16 mi WNW 11.5 mph - -   Scattered Clouds
8:20 AM 51.8 °F - 44.6 °F 76% 29.89 in 6.2 mi WNW 12.7 mph - N/A   Partly Cloudy
8:50 AM 51.8 °F - 44.6 °F 76% 29.89 in 6.2 mi WNW 12.7 mph - N/A   Partly Cloudy
9:20 AM 51.8 °F - 44.6 °F 76% 29.89 in 6.2 mi WNW 13.8 mph - N/A   Partly Cloudy
9:50 AM 53.6 °F - 46.4 °F 77% 29.89 in 6.2 mi WNW 13.8 mph - N/A   Scattered Clouds
10:20 AM 51.8 °F - 46.4 °F 82% 29.89 in 6.2 mi West 17.3 mph - N/A   Mostly Cloudy
10:50 AM 51.8 °F - 46.4 °F 82% 29.89 in 6.2 mi West 15.0 mph - N/A Rain Light Rain Showers
11:00 AM 53 °F - 46 °F 71% 29.89 in 12 mi West 15.0 mph - - Rain Light Rain Showers
11:20 AM 53.6 °F - 44.6 °F 72% 29.89 in 6.2 mi West 16.1 mph - N/A   Scattered Clouds
11:50 AM 53.6 °F - 44.6 °F 72% 29.89 in 6.2 mi West 20.7 mph - N/A   Scattered Clouds
12:20 PM 53.6 °F - 46.4 °F 77% 29.86 in 6.2 mi West 18.4 mph - N/A   Mostly Cloudy
12:50 PM 53.6 °F - 48.2 °F 82% 29.86 in 6.2 mi West 17.3 mph - N/A   Scattered Clouds
1:20 PM 51.8 °F - 46.4 °F 82% 29.86 in 6.2 mi West 21.9 mph - N/A Rain Light Rain Showers
1:50 PM 53.6 °F - 46.4 °F 77% 29.86 in 6.2 mi West 18.4 mph - N/A   Mostly Cloudy
2:00 PM 54 °F - 46 °F 66% 29.86 in 12 mi West 19.6 mph - - Rain Light Rain Showers
2:20 PM 53.6 °F - 44.6 °F 72% 29.83 in 6.2 mi West 17.3 mph - N/A   Mostly Cloudy
2:50 PM 53.6 °F - 44.6 °F 72% 29.83 in 6.2 mi West 15.0 mph 26.5 mph N/A   Mostly Cloudy
3:20 PM 53.6 °F - 42.8 °F 67% 29.83 in 6.2 mi West 15.0 mph - N/A   Mostly Cloudy
3:50 PM 53.6 °F - 42.8 °F 67% 29.80 in 6.2 mi West 16.1 mph - N/A Rain Light Rain Showers
4:20 PM 51.8 °F - 44.6 °F 76% 29.80 in 6.2 mi West 15.0 mph - N/A   Mostly Cloudy
4:50 PM 51.8 °F - 44.6 °F 76% 29.77 in 6.2 mi West 13.8 mph - N/A   Mostly Cloudy
5:00 PM 52 °F - 44 °F 68% 29.78 in 12 mi WSW 15.0 mph - - Rain Light Rain Showers
5:20 PM 51.8 °F - 46.4 °F 82% 29.74 in 6.2 mi WSW 16.1 mph - N/A Rain Light Rain Showers
5:50 PM 51.8 °F - 46.4 °F 82% 29.74 in 6.2 mi WSW 17.3 mph - N/A   Mostly Cloudy
6:20 PM 51.8 °F - 44.6 °F 76% 29.71 in 6.2 mi WSW 15.0 mph - N/A   Mostly Cloudy
6:50 PM 51.8 °F - 42.8 °F 71% 29.71 in 6.2 mi WSW 17.3 mph - N/A   Mostly Cloudy
7:20 PM 50.0 °F - 42.8 °F 76% 29.68 in 6.2 mi West 15.0 mph - N/A   Mostly Cloudy
7:50 PM 50.0 °F - 42.8 °F 76% 29.68 in 6.2 mi WSW 19.6 mph - N/A   Mostly Cloudy
8:00 PM 50 °F - 44 °F 75% 29.68 in 6 mi WSW 21.9 mph - -   Partly Cloudy
8:20 PM 50.0 °F - 44.6 °F 82% 29.65 in 6.2 mi WSW 19.6 mph - N/A   Mostly Cloudy
8:50 PM 50.0 °F - 46.4 °F 87% 29.65 in 5.6 mi WSW 20.7 mph - N/A Rain Light Rain Showers
9:20 PM 48.2 °F - 44.6 °F 87% 29.62 in 6.2 mi West 19.6 mph - N/A Rain Light Rain Showers
9:50 PM 48.2 °F - 44.6 °F 87% 29.62 in 4.3 mi West 18.4 mph - N/A Rain Light Rain Showers
10:20 PM 46.4 °F 41.1 °F 44.6 °F 93% 29.62 in 6.2 mi West 11.5 mph - N/A   Mostly Cloudy
10:50 PM 46.4 °F 41.1 °F 44.6 °F 93% 29.59 in 6.2 mi West 11.5 mph - N/A Rain Light Rain Showers
11:00 PM 47 °F - 43 °F 82% 29.60 in 6 mi West 12.7 mph - -   Partly Cloudy
11:20 PM 48.2 °F - 41.0 °F 76% 29.59 in 6.2 mi West 15.0 mph - N/A   Mostly Cloudy
11:50 PM 48.2 °F - 39.2 °F 71% 29.56 in 6.2 mi West 17.3 mph - N/A   Mostly Cloudy